Regional Weather Roundup
Issued by NWS State College, PA

Home | Current Version | Previous Version | Graphics & Text | Print | Product List | Glossary On
Versions: 1 2 3 4 5 6 7 8 9 10 11 12 13 14 15 16 17 18 19 20 21 22 23 24 25 26 27 28 29 30 31 32 33 34 35 36 37 38 39 40 41 42 43 44 45 46 47 48 49 50
000
ASUS41 KCTP 081110
RWRCTP

REGIONAL WEATHER ROUNDUP
NATIONAL WEATHER SERVICE STATE COLLEGE PA
600 AM EST MON FEB 08 2016

Note: "fair" indicates few or no clouds below 12,000 feet with no
significant weather and/or obstructions to visibility.

* = STATION THAT DOES NOT REPORT PRECIPITATION /E.G. RAIN...SNOW...ETC/
    THUNDER OR FOG.

PAZ002>004-007>009-013>016-020>023-029>032-081200-
WESTERN PENNSYLVANIA

CITY           SKY/WX    TMP DP  RH WIND       PRES   REMARKS
ERIE           CLOUDY    39  23  52 S12       29.67F
MEADVILLE      CLOUDY    35  23  61 SE3       29.66F
FRANKLIN*      MOCLDY    34  21  60 SE7       29.69F
NEW CASTLE     PTSUNNY   36  23  59 VRB3      29.68F
BEAVER COUNTY  NOT AVBL
BUTLER*        CLOUDY    34  21  60 SE6       29.72S
PITTSBURGH INT CLOUDY    33  23  66 SE5       29.68S
PITTSBURGH     CLOUDY    32  24  72 SE7       29.68F
INDIANA*       CLOUDY    27  25  93 CALM      29.73F
LATROBE        CLOUDY    28  25  86 CALM      29.72S
WASHINGTON CO* PTCLDY    34  23  64 S5        29.68F
$$

PAZ004>006-010>012-017>019-024>028-033>037-041-042-045-046-049>053-081200-
CENTRAL PENNSYLVANIA

CITY           SKY/WX    TMP DP  RH WIND       PRES   REMARKS
BRADFORD       PTCLDY    28  22  78 SE3       29.69S
DUBOIS         CLOUDY    31  22  69 E7        29.69S
CLEARFIELD     PTCLDY    25  21  85 NE7       29.74S
JOHNSTOWN      PTCLDY    32  19  58 S6        29.68F
ALTOONA        PTCLDY    26  22  84 CALM      29.74S
STATE COLLEGE  CLEAR     25  21  86 CALM      29.76S
WILLIAMSPORT   CLOUDY    25  22  88 CALM      29.80R
SELINSGROVE    CLOUDY    23  20  88 N3        29.81R
FT INDIANTOWN  CLOUDY    31  20  63 SE1       29.79R
CAPITAL CITY   CLOUDY    27  20  75 CALM      29.80R
HARRISBURG     CLOUDY    30  22  72 NW8       29.79R
YORK           PTCLDY    24  20  84 CALM      29.79R
$$

PAZ038>040-043-044-047-048-054-055-060>062-067>071-081200-
EASTERN PENNSYLVANIA

CITY           SKY/WX    TMP DP  RH WIND       PRES   REMARKS
SCRANTON       MOCLDY    33  22  63 NE7       29.76R
MOUNT POCONO   CLOUDY    29  21  72 E13G22    29.70S
ALLENTOWN      CLOUDY    34  23  64 NE8       29.77R
QUAKERTOWN*    CLOUDY    32  23  69 NE6       29.77R
READING        CLOUDY    34  21  59 NE5       29.79R
LANCASTER      PTCLDY    31  21  66 CALM      29.79R
COATESVILLE    CLOUDY    34  21  60 N7        29.77R
POTTSTOWN      CLOUDY    34  22  61 VRB7      29.78R
BLUE BELL        N/A     34  27  75 N5        29.76R
DOYLESTOWN     CLOUDY    34  24  67 NE9G17    29.74R
WILLOW GROVE   NOT AVBL
NORTH PHILA    CLOUDY    37  27  67 NE9       29.77R
PHILADELPHIA   CLOUDY    38  24  57 NE13      29.76R
$$



USA.gov is the U.S. government's official web portal to all federal, state and local government web resources and services.